Regional Weather Roundup
Issued by NWS

Home | Current Version | Previous Version | Graphics & Text | Print | Product List | Glossary On
Versions: 1 2 3 4 5 6 7 8 9 10 11 12 13 14 15 16 17 18 19 20 21 22 23 24 25 26 27 28 29 30 31 32 33 34 35 36 37 38 39 40 41 42 43 44 45 46 47 48 49 50
000
ASUS45 KBOU 061107
RWRCO

WEATHER ROUNDUP FOR COLORADO
NATIONAL WEATHER SERVICE DENVER/BOULDER CO
500 AM MDT FRI MAY 06 2016

NOTE: "FAIR" INDICATES FEW OR NO CLOUDS BELOW 12000 FEET WITH NO
SIGNIFICANT WEATHER AND/OR OBSTRUCTIONS TO VISIBILITY.

COZ001>005-013-030-031-061200-
...NORTHWEST COLORADO...

CITY           SKY/WX    TMP DP  RH WIND       PRES   REMARKS
CRAIG          FAIR      41  35  79 CALM      30.02R
HAYDEN         FAIR      52  27  37 CALM      30.03R
MEEKER         MOCLDY    44  35  70 NE10      30.06R
MOUNT WERNER   NOT AVBL
STEAMBOAT SPGS FAIR      44  32  62 CALM      30.05R
WALDEN         FAIR      37  32  81 CALM      30.14S
$$

COZ006>008-011-061200-
...WEST CENTRAL VALLEYS...

CITY           SKY/WX    TMP DP  RH WIND       PRES   REMARKS
GRAND JUNCTION FAIR      64  36  35 NE18      29.87S
MONTROSE       CLOUDY    62  32  32 S6        29.96S
EAGLE          FAIR      45  30  57 CALM      30.08R
RIFLE          CLOUDY    53  37  54 S10       29.97F
DELTA          NOT AVBL
NUCLA          NOT AVBL
$$

COZ017>023-064>068-061200-
...SOUTHWEST COLORADO...

CITY           SKY/WX    TMP DP  RH WIND       PRES   REMARKS
DURANGO        LGT RAIN  56  32  40 SE21G26   30.01S
CORTEZ         FAIR      65  30  27 SE16G32   29.91F
PAGOSA SPRINGS CLOUDY    50  31  47 CALM      30.11F
TELLURIDE      MOCLDY    50  32  50 CALM      30.16R
WOLF CREEK PAS CLOUDY    37  23  56 SW25G39   30.34F
$$

COZ009-010-012-014-032>034-037-058>063-061200-
...CENTRAL COLORADO...

CITY           SKY/WX    TMP DP  RH WIND       PRES   REMARKS
ASPEN          FAIR      44  29  55 S9        30.09R
BUENA VISTA    FAIR      35  31  85 NW6       30.17S WCI  30
COPPER MTN     NOT AVBL
BERTHOUD PASS  FAIR      36  28  75 CALM      30.38S
COTTONWOOD PAS FAIR      48  25  40 CALM      30.26S
GUNNISON       MOCLDY    43  28  56 N3        30.16R
KREMMLING      FAIR      37  32  81 CALM      30.12R
LEADVILLE      FAIR      35  24  64 CALM      30.24R
MONARCH PASS   CLOUDY    39  21  48 S12G22    30.46S
SALIDA         FAIR      44  32  63 CALM      30.23S
SUNLIGHT       MOCLDY    43  27  52 CALM      30.28S
WILKERSON PASS FAIR      37  27  65 SW7       30.35S
$$

COZ069>075-061200-
...SAN LUIS VALLEY/SANGRE DE CRISTO MOUNTAINS...

CITY           SKY/WX    TMP DP  RH WIND       PRES   REMARKS
ALAMOSA        FAIR      43  32  65 E9        30.13F
LA VETA PASS   FAIR      43  23  45 S5        30.28S
SAGUACHE       CLOUDY    41  32  70 N8        30.17S
$$

COZ035-036-038>040-061200-
...NORTHERN COLORADO FRONT RANGE...

CITY           SKY/WX    TMP DP  RH WIND       PRES   REMARKS
DENVER INTL AP MOCLDY    53  39  59 SW10      29.97R
DMNS CITY PARK   N/A     54  39  57 E7        29.98R
AURORA         FAIR      54  40  59 S9        29.99R
FRONT RANGE AP NOT AVBL
ERIE MUNI ARPT FAIR      46  41  83 SW5       29.97R
BOULDER MUN AP FAIR      52  37  58 SE3       29.97R
CENTENNIAL     FAIR      50  39  66 S8        30.00R
BROOMFIELD     FAIR      54  34  47 CALM      29.99R
FORT COLLINS   FAIR      50  41  71 N9        29.97S
LONGMONT       FAIR      51  41  68 CALM      29.98R
$$

COZ041-046-047-076>085-087-088-061200-
...PIKES PEAK/PALMER DIVIDE AND SOUTHERN FOOTHILLS...

CITY           SKY/WX    TMP DP  RH WIND       PRES   REMARKS
COLO. SPRINGS  FAIR      45  36  70 N6        30.05S
A. F. ACADEMY  NOT AVBL
SCHRIEVER AFB  NOT AVBL
ELLICOTT       FAIR     N/A N/A N/A CALM      30.03F
FALCON         NOT AVBL
FORT CARSON    FAIR      47  37  69 NW8       30.02S
LIMON          FAIR      43  41  93 CALM      30.01S
MONUMENT HILL  FAIR      45  36  70 SW13      30.09R
TRINIDAD       FAIR      63  21  20 SW21G32   30.02S
$$

COZ042>045-048>051-090-091-061200-
...NORTHEAST COLORADO...

CITY           SKY/WX    TMP DP  RH WIND       PRES   REMARKS
GREELEY ARPT   FAIR      48  43  81 N6        29.96S
AKRON          FAIR      48  43  82 SE10      29.96F
BURLINGTON     FAIR      51  44  77 SE16      29.99S
WRAY           NOT AVBL
STERLING       FAIR      52  45  76 S3        29.95S
HOLYOKE        NOT AVBL
FORT MORGAN    FAIR      48  42  79 N3        29.97R
$$

COZ086-089-092>099-061200-
...SOUTHEAST COLORADO...

CITY           SKY/WX    TMP DP  RH WIND       PRES   REMARKS
PUEBLO         FAIR      53  42  66 CALM      29.99R
LA JUNTA       FAIR      51  42  71 SE3       29.97R
LAMAR          FAIR      48  45  89 E7        29.95R
SPRINGFIELD      N/A     47  36  65 SW13      29.99S
$$



USA.gov is the U.S. government's official web portal to all federal, state and local government web resources and services.